星链-32755 (STARLINK-32755)

导读

STARLINK-32755是美国星链项目中的一颗卫星,于2025年1月27日北京时间08:00发射升空。它隶属于SpaceX公司打造的星链星座网络,该星座旨在为全球各地提供高速低延迟的互联网接入服务,这颗卫星入轨后将进一步扩充星链星座规模,提升全球网络覆盖能力与服务容量。

基本信息
目录编号:
62842
目录名称:
STARLINK-32755
国际标识:
2025-019P
轨道中心:
EARTH
卫星名称:
星链-32755
卫星全名:
星链-32755 (STARLINK-32755)
卫星状态:
在轨 (已飞行586 天)
发射日期:
2025-01-27 UTC
国别 :
美国 (US)
星等 :
--
轨道信息
数据来源 国际轨道数据 AOE轨道数据
星历时间 2026-09-05T09:16:37+0800
9小时前
查看轨道信息
2026-09-03T23:00:00+0800
1天前
查看轨道信息
半长轴 6861.191km 6861.215km
偏心率 0.0001434 0.0001372
轨道倾角 43.003° 43.002°
近地点辐角 267.387° 266.557°
升交点赤经 148.991° 157.060°
平近点角 92.682° 150.200°
近地点 482.07km 482.136km
远地点 484.038km 484.02km
周期 94.267分钟 94.267分钟
每日圈数 15.275785 15.275705
详细信息
固有亮度:
5
最大亮度:
2.5
卫星平台:
Starlink V1.0
覆盖范围:
全球
运营商:
太空探索技术公司
运营商所在国:
美国
制造商(研发单位):
太空探索技术公司
制造商所在国:
美国
使用方式:
暂无
卫星简介
Starlink 计划是 SpaceX 推出的全球卫星互联网项目,通过发射低轨道卫星,为全球尤其是偏远地区提供高速、低延迟的互联网服务。自 2019 年起,Starlink 已部署数千颗卫星,旨在缩小全球数字鸿沟,推动互联网普及。该项目还为军事、航空等行业提供通信支持,带来广泛经济效益。
2D轨道图
3D轨道图
轨道高度分析图
轨道倾角分析图
轨道综合分析图
查看轨道综合分析图
交会数据列表
事件ID 空间交会对象 最接近时刻(TCA) 交会距离 交会风险概率(CRP) 交会风险指数(CRI) 操作
CDM_260907-044506-284206-761921
2026-09-07T
04:45:54+0000
0.522 km
远距离
9.70039E-5 中风险 0.75
CDM_260907-062006-284206-761921
2026-09-07T
06:20:03+0000
0.835 km
远距离
2.353891E-5 中风险 0.62
CDM_260907-161505-955306-284221
2026-09-07T
16:15:44+0000
0.980 km
远距离
1.863916E-5 中风险 0.6
CDM_260907-194006-284206-761921
2026-09-07T
19:40:20+0000
1.179 km
极远距离
7.231278E-6 低风险 0.52
CDM_260903-061906-284206-630421
OBJECT M (66304)
2026-09-03T
06:19:13+0000
1.593 km
极远距离
3.869006E-6 低风险 0.47
CDM_260907-144105-955306-284221
2026-09-07T
14:41:34+0000
1.690 km
极远距离
3.040847E-6 低风险 0.45
CDM_260907-131300-733706-284221
2026-09-07T
13:13:55+0000
1.791 km
极远距离
2.68624E-6 低风险 0.44
CDM_260907-031106-284206-761921
2026-09-07T
03:11:45+0000
1.704 km
极远距离
2.234908E-6 低风险 0.42
CDM_260905-110506-284206-470721
2026-09-05T
11:05:45+0000
2.336 km
极远距离
1.399556E-6 低风险 0.38
CDM_260907-075406-284206-761921
2026-09-07T
07:54:12+0000
2.061 km
极远距离
1.372834E-6 低风险 0.38